This demonstration page uses our WeatherBlox Daily Observations layout. Learn more.

Left ArrowRight Arrow

Hourly Observations for December 10, 2018

Temp ( °F °C ) Dew Point ( °F °C ) Humidity (%) Winds ( mph kmh ) Pressure ( in mb ) Visibility ( mi km ) Precip ( " mm )
12:53 am 00:53 Clear 17 -8.3 12 -11.1 80 80 W 5 7 30.36 1028 9 14 0.00 0.00
1:53 am 01:53 Clear 16 -8.9 11 -11.7 80 80 WNW 8 13 30.36 1028 10 16 0.00 0.00
2:53 am 02:53 Clear 17 -8.3 11 -11.7 77 77 W 5 7 30.37 1028 10 16 0.00 0.00
3:53 am 03:53 Clear 16 -8.9 11 -11.7 80 80 WSW 5 7 30.35 1028 10 16 0.00 0.00
4:53 am 04:53 Clear 15 -9.4 10 -12.2 80 80 WSW 6 9 30.35 1028 10 16 0.00 0.00
5:53 am 05:53 Clear 16 -8.9 11 -11.7 80 80 W 6 9 30.35 1028 10 16 0.00 0.00
6:53 am 06:53 Clear 15 -9.4 10 -12.2 80 80 WSW 6 9 30.35 1028 10 16 0.00 0.00
7:53 am 07:53 Sunny 14 -10 9 -12.8 80 80 W 8 13 30.36 1028 10 16 0.00 0.00
8:53 am 08:53 Sunny 18 -7.8 13 -10.6 81 81 W 5 7 30.36 1028 10 16 0.00 0.00
9:53 am 09:53 Sunny 24 -4.4 17 -8.3 75 75 SW 3 6 30.35 1028 10 16 0.00 0.00
10:53 am 10:53 Sunny 27 -2.8 19 -7.2 72 72 SW 6 9 30.34 1027 10 16 0.00 0.00
11:53 am 11:53 Sunny 31 -0.6 22 -5.6 69 69 SW 7 11 30.32 1027 10 16 0.00 0.00
12:53 pm 12:53 Sunny 35 1.7 22 -5.6 59 59 SW 8 13 30.27 1025 10 16 0.00 0.00
1:53 pm 13:53 Sunny 37 2.8 23 -5 57 57 SW 9 15 30.24 1024 10 16 0.00 0.00
2:53 pm 14:53 Sunny 37 2.8 23 -5 57 57 SW 8 13 30.24 1024 10 16 0.00 0.00
3:53 pm 15:53 Sunny 36 2.2 24 -4.4 62 62 SW 8 13 30.23 1024 10 16 0.00 0.00
4:53 pm 16:53 Sunny 35 1.7 25 -3.9 67 67 SSW 8 13 30.23 1024 10 16 0.00 0.00
5:53 pm 17:53 Clear 32 0 23 -5 69 69 SSW 7 11 30.22 1023 10 16 0.00 0.00
6:53 pm 18:53 Clear 31 -0.6 24 -4.4 76 76 SSW 8 13 30.22 1023 10 16 0.00 0.00
7:53 pm 19:53 Clear 32 0 24 -4.4 73 73 S 7 11 30.20 1023 10 16 0.00 0.00
8:53 pm 20:53 Clear 31 -0.6 23 -5 72 72 SSW 9 15 30.19 1022 10 16 0.00 0.00
9:53 pm 21:53 Clear 31 -0.6 23 -5 72 72 SSW 9 15 30.15 1021 10 16 0.00 0.00
10:53 pm 22:53 Clear 32 0 23 -5 69 69 SSW 9 15 30.13 1020 10 16 0.00 0.00
11:53 pm 23:53 Clear 32 0 22 -5.6 66 66 SSW 12 19 30.11 1020 10 16 0.00 0.00

Powered by AerisWeather